Wind_Speed
79 75 80 76 73 73 67 68 64 63 62 57 56 51 49 51 49 50 48 49 51 51 48 46 48 43 43 40 38 39 40 41 42 43 39 38 40 44 47 46 45 45 47 50 51 52 54
77 73 76 76 76 72 67 66 63 67 66 57 54 48 49 50 48 49 50 54 49 47 46 48 51 49 47 42 41 41 40 41 40 40 42 42 41 40 40 42 46 50 53 52 55 56 58
72 76 73 72 71 66 69 64 64 60 62 61 56 51 50 51 52 50 52 52 50 48 47 48 52 52 45 41 40 43 42 40 39 40 40 42 41 41 40 42 49 54 57 57 59 62 64
85 74 77 71 70 72 72 68 67 64 64 59 60 57 56 56 55 55 52 50 54 54 50 48 48 51 51 46 41 43 44 43 43 41 40 42 42 44 46 50 53 57 59 61 64 67 68
85 79 70 68 69 71 68 65 71 65 67 70 59 63 65 64 64 59 56 57 57 60 56 51 50 52 55 51 49 44 43 44 42 39 41 46 49 53 55 56 59 58 61 65 68 70 70
86 84 77 71 72 72 68 71 72 74 73 66 68 65 71 75 74 70 64 62 57 63 65 55 54 52 55 54 50 49 47 46 46 47 51 55 57 55 56 59 61 63 63 66 73 75 75
88 87 76 79 80 76 76 75 76 79 74 73 73 77 72 77 80 79 71 66 64 71 65 64 58 60 56 55 55 54 51 49 54 55 53 55 59 60 61 64 68 71 72 76 82 83 77
95 93 90 87 87 86 84 81 79 81 81 82 85 80 81 69 77 79 78 72 69 73 69 67 66 63 61 58 59 62 59 58 59 59 57 59 63 67 71 73 74 70 74 79 79 78 71
105 105 103 98 97 95 91 86 86 86 87 88 86 86 84 83 77 84 79 80 77 75 68 68 67 66 61 60 58 64 61 61 61 62 64 68 71 73 73 76 79 75 75 77 80 81 79
117 116 113 108 104 97 96 94 91 95 92 87 88 87 82 82 86 81 85 84 85 74 69 64 66 67 68 66 65 66 68 66 67 70 72 76 77 77 77 80 79 79 78 77 81 81 83
122 124 119 115 111 102 99 100 96 96 91 90 88 87 83 80 84 82 84 86 83 81 78 72 66 69 71 72 73 73 73 72 72 73 76 79 82 85 86 85 82 80 80 80 80 81 81
137 138 135 130 122 113 112 107 105 101 96 96 92 89 85 84 86 88 92 88 88 86 77 74 72 71 74 76 78 80 80 80 80 81 80 84 83 85 89 89 86 83 84 83 83 84 81
138 136 133 130 130 123 121 115 111 109 108 104 100 97 94 92 93 94 92 89 89 86 81 79 77 77 78 82 86 88 89 89 88 86 85 88 88 90 92 92 90 89 88 87 86 88 88
140 138 136 132 127 124 122 120 117 116 117 113 108 106 110 104 105 102 102 97 95 87 84 83 83 85 87 88 91 94 92 93 93 91 89 91 94 95 94 94 93 93 91 91 91 91 90
141 138 134 131 128 126 125 125 122 120 118 117 114 109 110 112 113 108 103 99 94 93 91 94 97 97 98 100 98 98 97 95 95 97 97 95 96 96 96 95 94 93 94 95 96 98 98
139 136 134 131 129 126 126 126 123 121 121 119 119 117 115 112 115 113 109 102 103 100 102 102 103 103 102 101 99 98 96 97 99 102 100 97 96 96 97 98 98 99 97 98 101 101 98
129 128 129 129 129 127 126 124 123 124 125 123 121 117 116 117 116 118 110 106 106 105 106 107 107 106 106 107 107 103 102 104 101 102 101 99 97 97 98 100 100 103 103 104 103 96 92
118 119 120 121 121 122 125 128 128 126 124 124 124 121 120 122 121 117 114 112 110 110 111 109 110 109 107 110 108 106 105 107 105 104 102 99 97 99 101 102 103 103 103 103 100 93 81
112 110 112 109 110 113 117 120 121 125 126 126 125 122 122 126 123 117 118 116 114 113 115 112 111 110 110 110 109 107 107 108 106 104 103 102 101 100 102 102 102 100 98 95 86 76 70
105 104 105 103 105 106 110 114 118 117 118 122 124 121 125 123 118 118 118 116 115 115 114 113 112 112 112 112 112 109 108 105 103 106 106 104 103 101 100 100 93 85 80 76 71 69 73
96 99 97 97 98 102 105 107 110 114 117 116 111 110 114 115 115 114 115 115 114 114 116 115 112 113 114 114 113 110 105 105 107 108 109 104 101 101 92 85 77 64 60 66 71 73 73
88 87 90 93 94 96 97 98 101 106 109 113 112 107 103 99 96 97 105 104 109 109 110 111 111 113 113 113 113 110 107 104 105 102 97 99 89 81 75 73 63 55 65 67 71 72 70
83 82 83 86 88 89 92 95 97 99 99 101 101 103 99 94 93 90 86 88 92 98 100 103 106 105 107 106 103 99 94 89 87 82 78 73 72 71 60 62 60 55 63 73 73 73 65
75 76 78 77 80 86 88 90 90 91 92 91 96 100 100 95 91 88 83 80 80 85 89 89 90 88 87 85 84 80 79 74 69 67 67 65 66 62 57 60 60 64 73 77 72 64 48
67 71 73 75 77 83 83 85 84 85 85 85 88 90 94 95 92 89 84 81 77 72 72 70 73 71 66 63 62 62 61 60 60 60 60 61 61 62 59 61 57 70 74 60 53 52 42
66 65 68 72 74 77 77 79 80 79 79 80 83 84 87 86 86 88 88 86 81 76 73 72 72 68 64 61 57 54 54 56 57 56 62 64 64 63 65 60 64 66 52 45 42 43 30
59 60 64 61 66 62 65 70 72 74 76 77 78 77 80 81 80 81 82 85 85 82 78 76 73 68 62 63 60 58 58 58 57 59 62 64 65 64 65 51 51 44 37 32 31 34 30
47 46 51 54 57 55 61 66 66 68 72 72 74 74 74 75 77 76 76 76 80 81 80 80 76 71 68 67 66 66 64 64 60 59 64 66 66 62 53 42 37 32 27 26 25 26 29
37 39 48 54 54 53 58 62 62 64 67 66 70 71 71 71 70 71 71 72 74 75 75 75 74 74 73 72 71 71 69 69 67 65 68 64 54 45 39 31 29 26 24 24 22 23 23
Wind_Direction
280 279 279 281 279 279 281 282 278 281 290 278 278 275 272 279 278 278 283 295 294 288 279 273 267 267 277 273 271 268 267 266 261 264 267 272 274 268 271 275 282 292 293 294 293 291 294
281 272 277 277 279 277 279 282 278 280 284 282 281 276 272 272 276 281 287 292 295 286 279 276 271 275 277 274 268 264 263 266 261 263 262 266 271 269 273 281 289 291 290 291 291 291 292
277 275 277 273 279 280 281 275 280 276 280 286 284 277 274 272 274 278 289 286 293 290 281 279 277 274 273 271 272 266 262 262 258 258 260 267 273 279 284 288 290 290 290 292 292 291 290
274 275 269 274 271 274 279 274 277 274 275 284 284 281 275 277 275 280 284 282 290 293 291 278 280 275 269 271 273 274 272 268 265 265 271 277 280 282 286 289 289 289 290 289 290 290 290
269 271 273 271 263 272 270 269 271 271 274 276 277 280 280 279 276 279 279 285 288 291 291 280 280 277 275 275 277 271 270 271 267 269 277 280 281 283 285 286 289 285 288 289 291 290 291
271 269 270 265 263 267 268 267 266 267 267 272 269 274 279 278 279 279 278 280 282 289 289 283 272 278 277 277 277 270 268 268 272 272 274 274 279 282 285 290 292 290 290 289 288 290 293
273 269 268 268 262 263 268 267 267 267 267 266 271 269 274 274 275 276 274 277 282 284 288 284 283 278 278 275 277 272 270 270 272 274 277 281 284 286 287 290 292 289 289 289 291 292 296
273 271 273 271 271 267 268 265 264 262 265 267 268 268 272 271 268 270 272 274 274 280 285 283 284 281 281 274 273 273 274 271 274 277 278 282 286 287 288 290 296 295 290 291 294 296 296
273 273 276 271 271 270 268 265 264 263 263 267 267 267 268 266 265 268 267 269 273 276 281 279 277 279 280 272 272 273 272 274 278 281 283 286 290 291 291 290 297 295 294 293 290 292 295
272 273 272 274 268 268 266 264 267 264 261 261 261 263 262 265 265 262 264 267 271 278 279 272 275 276 275 272 270 273 276 279 282 285 286 290 292 291 290 291 293 293 295 292 290 290 291
269 270 269 272 268 267 266 265 266 264 264 262 262 260 260 262 265 268 271 272 275 280 282 279 275 272 273 274 275 276 278 282 284 283 282 284 286 289 290 291 293 293 295 295 291 291 293
268 269 270 269 267 264 268 265 264 265 264 263 263 260 259 261 264 266 269 270 273 276 280 276 274 272 273 275 276 279 281 281 282 283 281 284 287 288 290 291 291 293 293 292 291 291 293
268 267 267 265 266 264 264 263 256 259 259 263 261 261 259 258 260 265 266 268 269 274 275 273 270 268 269 272 275 278 280 280 281 282 280 285 289 290 291 292 291 292 293 293 293 292 293
265 264 263 264 261 261 259 259 259 257 256 258 257 257 259 262 261 264 264 265 266 266 266 268 269 270 271 270 274 275 275 277 278 282 282 284 287 290 291 289 289 291 292 292 293 295 295
263 262 261 260 259 258 257 257 258 256 256 258 258 256 256 261 262 263 262 264 264 262 264 266 267 268 269 272 274 276 276 277 277 279 281 281 284 288 288 289 288 290 292 293 292 293 295
260 260 260 259 258 257 256 255 255 255 257 257 258 257 256 256 255 259 257 260 263 262 265 265 266 268 270 270 271 271 272 274 276 279 280 281 284 288 290 289 289 290 290 290 291 292 293
257 256 256 256 255 255 254 254 253 253 255 256 255 254 254 255 257 257 258 260 260 261 262 263 264 266 268 270 271 272 274 275 276 277 279 282 284 286 288 290 290 291 292 292 293 293 292
255 254 253 252 251 252 252 252 252 253 252 253 253 254 255 255 255 258 259 261 261 263 264 265 265 265 267 267 269 270 273 275 276 278 280 282 283 285 288 289 289 290 291 292 292 292 292
254 253 252 251 250 249 250 250 251 250 250 253 252 252 255 256 256 258 259 259 260 260 261 262 263 265 267 267 268 271 273 274 276 278 279 280 283 284 286 287 287 288 289 288 289 287 290
251 250 250 248 249 248 247 247 248 250 250 250 252 252 253 254 255 257 259 259 259 258 260 261 262 263 264 266 268 271 273 274 277 278 279 280 281 285 285 285 286 286 284 286 285 288 287
246 248 247 248 247 247 245 245 245 248 249 250 250 250 251 253 253 257 257 257 258 258 259 261 262 263 264 266 268 271 273 274 276 277 279 281 282 283 284 283 282 281 282 285 288 291 294
248 245 245 246 244 245 244 244 246 246 245 249 251 250 250 250 252 254 255 255 256 256 258 261 262 262 264 266 268 271 273 275 277 278 277 280 281 279 280 279 278 285 286 288 288 289 295
245 245 243 242 243 242 242 243 243 242 243 246 250 253 252 251 251 252 253 254 255 254 256 258 261 264 265 267 269 269 272 275 276 276 277 277 276 276 280 283 289 292 289 289 290 291 291
242 241 242 240 238 240 240 241 241 242 242 241 243 247 251 252 250 247 247 248 250 252 256 258 259 262 264 266 268 268 270 271 273 272 274 276 278 279 282 288 291 291 287 285 286 284 281
239 238 238 238 235 237 237 238 239 239 240 240 241 243 246 249 252 254 254 250 249 249 251 253 256 257 260 261 262 264 267 269 272 273 276 277 280 284 289 286 293 292 282 280 280 275 275
236 235 235 235 235 235 237 236 238 238 238 238 239 239 243 246 247 246 249 253 256 255 255 255 258 260 260 264 267 269 271 273 273 275 280 282 283 289 290 293 297 282 280 281 275 272 274
235 236 237 240 240 239 238 240 238 239 238 236 237 237 238 242 245 247 246 247 250 253 256 257 259 261 263 265 267 267 270 272 275 275 278 282 286 290 291 291 282 277 273 264 260 267 264
233 234 238 236 234 232 230 235 235 235 236 235 236 236 235 237 241 244 246 247 246 248 249 251 254 257 258 262 264 265 265 268 273 277 278 282 286 290 288 280 272 269 263 258 256 258 261
221 216 221 227 230 226 226 230 231 233 235 232 233 234 234 234 237 240 244 246 248 250 251 252 253 255 257 259 262 265 268 270 272 274 278 282 284 281 274 266 262 258 252 248 246 249 247
Height
10714 10714 10715 10717 10718 10718 10719 10720 10721 10723 10724 10723 10726 10724 10725 10726 10727 10728 10729 10726 10725 10725 10725 10722 10722 10723 10724 10725 10724 10722 10724 10724 10723 10724 10726 10725 10725 10725 10726 10724 10722 10720 10720 10718 10715 10712 10707
10697 10699 10700 10702 10703 10704 10705 10708 10708 10709 10712 10713 10713 10713 10713 10714 10716 10717 10719 10717 10715 10716 10715 10714 10713 10713 10714 10715 10714 10714 10713 10715 10714 10714 10715 10715 10714 10714 10716 10715 10712 10709 10708 10707 10703 10699 10696
10680 10683 10686 10687 10689 10689 10690 10693 10696 10697 10699 10701 10701 10702 10702 10702 10703 10705 10708 10707 10706 10705 10705 10704 10704 10703 10705 10705 10705 10704 10703 10703 10704 10704 10704 10705 10704 10703 10704 10704 10702 10700 10695 10694 10690 10687 10685
10665 10667 10671 10673 10676 10678 10676 10678 10682 10685 10686 10686 10688 10690 10690 10691 10692 10693 10697 10697 10696 10694 10695 10694 10694 10693 10694 10695 10694 10694 10694 10693 10694 10694 10694 10693 10692 10692 10693 10693 10690 10687 10683 10680 10679 10675 10672
10644 10650 10653 10657 10659 10664 10664 10665 10668 10671 10674 10675 10676 10675 10677 10678 10679 10681 10685 10685 10684 10683 10683 10683 10683 10683 10683 10683 10683 10683 10683 10683 10683 10684 10683 10682 10680 10680 10681 10679 10678 10675 10673 10668 10663 10660 10660
10625 10627 10634 10639 10642 10647 10650 10651 10654 10656 10658 10660 10663 10665 10663 10664 10665 10667 10670 10671 10672 10672 10670 10670 10671 10672 10671 10671 10671 10669 10669 10670 10671 10671 10672 10670 10667 10667 10667 10665 10664 10663 10660 10656 10647 10645 10646
10601 10606 10610 10617 10622 10624 10630 10634 10636 10636 10639 10644 10646 10649 10651 10651 10652 10652 10655 10657 10659 10661 10657 10656 10659 10658 10659 10657 10658 10655 10655 10656 10654 10656 10660 10657 10653 10654 10651 10650 10650 10648 10646 10641 10633 10627 10632
10575 10582 10590 10596 10597 10602 10608 10614 10617 10619 10621 10623 10626 10630 10631 10635 10636 10636 10638 10641 10643 10648 10646 10644 10644 10643 10644 10645 10642 10639 10640 10641 10639 10640 10643 10643 10640 10638 10636 10633 10632 10631 10627 10622 10621 10612 10613
10551 10554 10562 10571 10574 10578 10582 10587 10594 10599 10600 10604 10605 10609 10611 10615 10617 10620 10620 10622 10627 10630 10636 10629 10630 10631 10630 10630 10628 10622 10626 10626 10626 10625 10627 10624 10625 10622 10618 10616 10617 10612 10609 10609 10606 10600 10597
10524 10529 10533 10542 10547 10552 10559 10563 10566 10572 10578 10581 10583 10587 10589 10592 10599 10598 10600 10602 10605 10606 10617 10621 10617 10616 10613 10612 10611 10610 10610 10610 10611 10610 10610 10607 10604 10603 10600 10598 10599 10594 10590 10590 10586 10584 10580
10498 10505 10508 10514 10518 10525 10530 10538 10542 10546 10550 10557 10562 10567 10569 10573 10576 10576 10576 10578 10581 10582 10593 10602 10605 10598 10596 10594 10592 10593 10594 10594 10594 10594 10592 10590 10587 10584 10579 10579 10577 10575 10570 10568 10565 10561 10561
10468 10473 10479 10487 10492 10498 10502 10513 10516 10521 10525 10531 10538 10544 10549 10553 10555 10554 10556 10559 10563 10566 10577 10580 10584 10581 10579 10576 10575 10575 10576 10576 10577 10577 10573 10570 10569 10568 10564 10559 10558 10557 10553 10549 10547 10542 10544
10427 10436 10446 10452 10464 10472 10476 10483 10491 10497 10501 10506 10511 10518 10526 10530 10534 10533 10537 10539 10542 10553 10556 10559 10563 10561 10560 10559 10558 10558 10558 10558 10558 10557 10555 10552 10551 10548 10544 10539 10536 10534 10532 10528 10528 10524 10520
10391 10399 10410 10419 10426 10437 10444 10450 10459 10467 10472 10481 10489 10493 10498 10504 10508 10511 10515 10520 10527 10539 10534 10537 10538 10537 10539 10539 10539 10539 10540 10538 10538 10539 10537 10534 10530 10528 10525 10520 10516 10512 10510 10507 10504 10502 10500
10350 10362 10373 10382 10391 10401 10409 10417 10426 10434 10442 10448 10459 10468 10472 10477 10481 10485 10489 10499 10511 10513 10516 10514 10514 10515 10517 10516 10516 10519 10519 10517 10517 10517 10519 10519 10514 10510 10505 10500 10495 10493 10488 10485 10479 10477 10476
10308 10320 10333 10343 10355 10366 10375 10385 10393 10403 10408 10417 10426 10436 10445 10451 10455 10460 10469 10484 10491 10492 10490 10490 10490 10491 10492 10493 10497 10497 10498 10497 10496 10495 10496 10499 10501 10495 10484 10476 10470 10469 10467 10466 10456 10455 10451
10268 10281 10294 10307 10317 10327 10340 10351 10359 10370 10377 10386 10395 10406 10420 10424 10426 10430 10449 10461 10463 10466 10465 10464 10466 10468 10469 10471 10472 10474 10477 10474 10474 10473 10474 10478 10480 10478 10470 10454 10448 10440 10439 10436 10433 10428 10423
10228 10242 10256 10270 10284 10291 10304 10314 10324 10334 10344 10355 10365 10378 10389 10388 10398 10411 10426 10431 10441 10439 10436 10440 10442 10443 10446 10446 10447 10450 10453 10452 10452 10453 10456 10456 10457 10455 10448 10439 10430 10426 10419 10410 10405 10406 10402
10190 10206 10218 10235 10249 10259 10269 10280 10290 10301 10312 10321 10332 10350 10356 10359 10369 10393 10399 10405 10411 10414 10410 10416 10417 10419 10419 10420 10423 10429 10432 10429 10432 10435 10436 10435 10434 10433 10429 10421 10414 10408 10400 10393 10388 10385 10385
10158 10170 10185 10202 10214 10227 10238 10248 10258 10267 10278 10288 10301 10320 10326 10335 10353 10361 10368 10377 10384 10383 10385 10390 10392 10393 10392 10394 10398 10409 10408 10412 10414 10407 10409 10411 10411 10409 10406 10400 10395 10391 10383 10378 10370 10369 10362
10131 10141 10157 10173 10184 10196 10208 10217 10230 10238 10248 10258 10271 10289 10303 10317 10327 10333 10336 10346 10353 10359 10360 10361 10367 10368 10367 10371 10377 10383 10392 10392 10388 10385 10382 10383 10386 10383 10381 10378 10377 10375 10369 10359 10352 10351 10345
10104 10120 10133 10143 10157 10168 10180 10191 10201 10213 10222 10231 10244 10264 10278 10290 10298 10303 10312 10321 10326 10329 10335 10336 10342 10340 10347 10355 10355 10363 10367 10366 10366 10363 10361 10361 10362 10359 10362 10358 10358 10363 10348 10342 10339 10336 10331
10082 10094 10105 10120 10132 10144 10153 10163 10176 10187 10204 10215 10224 10234 10247 10262 10274 10283 10294 10296 10302 10303 10307 10311 10316 10323 10328 10332 10339 10343 10344 10345 10343 10342 10340 10340 10339 10338 10348 10338 10340 10345 10333 10320 10320 10315 10314
10062 10072 10082 10095 10109 10117 10127 10138 10153 10166 10180 10199 10206 10211 10219 10232 10245 10259 10267 10272 10280 10283 10291 10296 10300 10303 10307 10316 10321 10324 10327 10326 10325 10323 10323 10323 10317 10321 10330 10324 10326 10323 10310 10301 10302 10297 10300
10041 10053 10062 10072 10086 10092 10105 10118 10130 10144 10160 10176 10185 10194 10203 10213 10223 10231 10241 10251 10259 10266 10273 10278 10278 10285 10296 10299 10302 10307 10309 10309 10308 10306 10303 10303 10304 10304 10310 10305 10311 10305 10280 10285 10287 10280 10288
10021 10032 10043 10053 10062 10074 10087 10099 10110 10125 10139 10152 10163 10176 10184 10193 10205 10212 10221 10227 10235 10244 10252 10254 10259 10269 10279 10281 10286 10290 10291 10292 10293 10291 10287 10287 10288 10291 10287 10288 10292 10270 10272 10274 10273 10268 10279
10005 10016 10026 10039 10048 10063 10077 10083 10095 10105 10118 10132 10142 10156 10166 10175 10185 10193 10203 10211 10218 10225 10234 10237 10242 10252 10262 10264 10268 10274 10275 10277 10279 10278 10277 10274 10274 10275 10270 10271 10267 10262 10262 10261 10260 10260 10265
9994 10006 10015 10024 10034 10047 10060 10066 10076 10088 10097 10111 10125 10134 10148 10159 10167 10176 10184 10192 10200 10207 10214 10219 10229 10240 10247 10250 10253 10255 10259 10261 10267 10267 10262 10262 10261 10258 10258 10255 10252 10253 10253 10252 10252 10253 10255
9985 9995 10002 10009 10019 10032 10043 10050 10060 10071 10080 10095 10106 10117 10130 10142 10153 10161 10169 10174 10181 10188 10198 10207 10215 10221 10227 10232 10235 10238 10244 10249 10251 10254 10247 10249 10245 10248 10245 10244 10245 10245 10245 10245 10245 10247 10248